• In Czech Republic
  • List of Countries
  • For 7 days
  • Water Temperature
  • Satellite Maps
  • Weather Map
  • Weather Widgets
  • user-avatar
    Login

    Hourly Weather Shaki

    Today, 15 October, Monday

    Time Temperature Precipitation Wind Pressure Humidity
    00:00 +15°C° 0 mm 1 mps 740 mmHg 72%
    01:00 +14°C° 0 mm 1 mps 740 mmHg 72%
    02:00 +14°C° 0 mm 1 mps 740 mmHg 72%
    03:00 +14°C° 0 mm 1 mps 739 mmHg 74%
    04:00 +13°C° 0 mm 0 mps 739 mmHg 74%
    05:00 +13°C° 0 mm 0 mps 740 mmHg 74%
    06:00 +13°C° 0 mm 0 mps 740 mmHg 74%
    07:00 +15°C° 0 mm 1 mps 740 mmHg 70%
    08:00 +18°C° 0 mm 1 mps 740 mmHg 65%
    09:00 +19°C° 0 mm 2 mps 740 mmHg 60%
    10:00 +19°C° 0 mm 2 mps 740 mmHg 58%
    11:00 +20°C° 0 mm 3 mps 740 mmHg 56%
    12:00 +21°C° 0 mm 3 mps 740 mmHg 54%
    13:00 +21°C° 0 mm 3 mps 740 mmHg 55%
    14:00 +21°C° 0 mm 3 mps 740 mmHg 55%
    15:00 +21°C° 0 mm 3 mps 740 mmHg 57%
    16:00 +20°C° 0 mm 3 mps 740 mmHg 63%
    17:00 +19°C° 0 mm 3 mps 741 mmHg 69%
    18:00 +18°C° 0 mm 3 mps 741 mmHg 75%
    19:00 +17°C° 0 mm 3 mps 741 mmHg 74%
    20:00 +17°C° 0 mm 3 mps 742 mmHg 72%
    21:00 +16°C° 0 mm 3 mps 742 mmHg 71%
    22:00 +16°C° 0 mm 3 mps 742 mmHg 71%
    23:00 +15°C° 0 mm 2 mps 742 mmHg 72%

    Tomorrow, 16 October, Tuesday

    Time Temperature Precipitation Wind Pressure Humidity
    00:00 +15°C° 0 mm 2 mps 742 mmHg 72%
    01:00 +15°C° 0 mm 2 mps 742 mmHg 73%
    02:00 +14°C° 0 mm 2 mps 742 mmHg 74%
    03:00 +14°C° 0 mm 1 mps 742 mmHg 75%
    04:00 +14°C° 0 mm 1 mps 742 mmHg 75%
    05:00 +14°C° 0 mm 1 mps 742 mmHg 76%
    06:00 +13°C° 0 mm 1 mps 742 mmHg 77%
    07:00 +15°C° 0 mm 2 mps 742 mmHg 72%
    08:00 +16°C° 0 mm 2 mps 743 mmHg 68%
    09:00 +18°C° 0 mm 2 mps 743 mmHg 63%
    10:00 +19°C° 0 mm 2 mps 743 mmHg 60%
    11:00 +20°C° 0 mm 3 mps 742 mmHg 58%
    12:00 +21°C° 0 mm 3 mps 742 mmHg 55%
    13:00 +21°C° 0 mm 3 mps 742 mmHg 55%
    14:00 +21°C° 0 mm 3 mps 742 mmHg 55%
    15:00 +21°C° 0 mm 3 mps 742 mmHg 55%
    16:00 +20°C° 0 mm 2 mps 742 mmHg 61%
    17:00 +19°C° 0 mm 2 mps 742 mmHg 67%
    18:00 +18°C° 0 mm 2 mps 742 mmHg 73%
    19:00 +17°C° 0 mm 2 mps 742 mmHg 74%
    20:00 +17°C° 0 mm 2 mps 742 mmHg 75%
    21:00 +16°C° 0 mm 2 mps 742 mmHg 76%
    22:00 +16°C° 0 mm 2 mps 742 mmHg 78%
    23:00 +16°C° 0 mm 2 mps 742 mmHg 80%

    Day after tomorrow, 17 October, Wednesday

    Time Temperature Precipitation Wind Pressure Humidity
    00:00 +15°C° 0 mm 2 mps 742 mmHg 82%
    01:00 +15°C° 0 mm 2 mps 742 mmHg 83%
    02:00 +15°C° 0 mm 2 mps 742 mmHg 83%
    03:00 +15°C° 0 mm 1 mps 742 mmHg 84%
    04:00 +15°C° 0 mm 1 mps 742 mmHg 83%
    05:00 +15°C° 0 mm 1 mps 742 mmHg 83%
    06:00 +15°C° 0 mm 1 mps 742 mmHg 83%
    07:00 +16°C° 0 mm 1 mps 742 mmHg 79%
    08:00 +18°C° 0 mm 1 mps 742 mmHg 76%
    09:00 +18°C° 0 mm 2 mps 742 mmHg 72%
    10:00 +19°C° 0 mm 2 mps 742 mmHg 70%
    11:00 +19°C° 0 mm 2 mps 742 mmHg 68%
    12:00 +20°C° 0 mm 2 mps 741 mmHg 66%
    13:00 +20°C° 0 mm 2 mps 741 mmHg 65%
    14:00 +20°C° 0 mm 2 mps 741 mmHg 64%
    15:00 +21°C° 0 mm 2 mps 740 mmHg 63%
    16:00 +20°C° 0 mm 2 mps 740 mmHg 70%
    17:00 +18°C° 0 mm 2 mps 740 mmHg 77%
    18:00 +18°C° 0 mm 1 mps 740 mmHg 84%
    19:00 +18°C° 0 mm 1 mps 740 mmHg 84%
    20:00 +16°C° 0 mm 1 mps 740 mmHg 85%
    21:00 +16°C° 0 mm 1 mps 740 mmHg 85%
    22:00 +16°C° 0 mm 1 mps 740 mmHg 84%
    23:00 +16°C° 0 mm 1 mps 740 mmHg 83%

    18 October, Thursday

    Time Temperature Precipitation Wind Pressure Humidity
    00:00 +16°C° 0 mm 1 mps 740 mmHg 82%
    01:00 +16°C° 0 mm 1 mps 739 mmHg 80%
    02:00 +15°C° 0 mm 1 mps 739 mmHg 79%
    03:00 +15°C° 0 mm 1 mps 739 mmHg 77%
    04:00 +15°C° 0 mm 1 mps 739 mmHg 75%
    05:00 +15°C° 0 mm 1 mps 739 mmHg 72%
    06:00 +15°C° 0 mm 1 mps 739 mmHg 70%
    07:00 +16°C° 0 mm 1 mps 739 mmHg 66%
    08:00 +19°C° 0 mm 1 mps 739 mmHg 61%
    09:00 +21°C° 0 mm 1 mps 739 mmHg 57%
    10:00 +21°C° 0 mm 2 mps 739 mmHg 55%
    11:00 +23°C° 0 mm 2 mps 738 mmHg 52%
    12:00 +24°C° 0 mm 2 mps 738 mmHg 50%
    13:00 +24°C° 0 mm 2 mps 738 mmHg 49%
    14:00 +24°C° 0 mm 2 mps 738 mmHg 49%
    15:00 +24°C° 0 mm 2 mps 737 mmHg 48%
    16:00 +23°C° 0 mm 2 mps 738 mmHg 55%
    17:00 +20°C° 0 mm 2 mps 738 mmHg 62%
    18:00 +19°C° 0 mm 2 mps 738 mmHg 69%
    19:00 +18°C° 0 mm 2 mps 738 mmHg 69%
    20:00 +18°C° 0 mm 2 mps 739 mmHg 70%
    21:00 +17°C° 0 mm 2 mps 739 mmHg 71%
    22:00 +17°C° 0 mm 2 mps 739 mmHg 72%
    23:00 +17°C° 0 mm 2 mps 739 mmHg 73%

    19 October, Friday

    Time Temperature Precipitation Wind Pressure Humidity
    00:00 +16°C° 0 mm 2 mps 739 mmHg 75%
    01:00 +16°C° 0 mm 2 mps 739 mmHg 75%
    02:00 +16°C° 0 mm 1 mps 739 mmHg 76%
    03:00 +15°C° 0 mm 1 mps 739 mmHg 76%
    04:00 +15°C° 0 mm 1 mps 739 mmHg 76%
    05:00 +15°C° 0 mm 1 mps 739 mmHg 76%
    06:00 +14°C° 0 mm 0 mps 739 mmHg 75%
    07:00 +16°C° 0 mm 1 mps 739 mmHg 71%
    08:00 +19°C° 0 mm 1 mps 739 mmHg 66%
    09:00 +21°C° 0 mm 1 mps 739 mmHg 62%
    10:00 +21°C° 0 mm 1 mps 739 mmHg 59%
    11:00 +21°C° 0 mm 2 mps 739 mmHg 56%
    12:00 +23°C° 0 mm 2 mps 739 mmHg 52%
    13:00 +24°C° 0 mm 2 mps 738 mmHg 52%
    14:00 +24°C° 0 mm 2 mps 738 mmHg 52%
    15:00 +24°C° 0 mm 2 mps 738 mmHg 52%
    16:00 +23°C° 0 mm 2 mps 738 mmHg 59%
    17:00 +20°C° 0 mm 2 mps 738 mmHg 66%
    18:00 +19°C° 0 mm 2 mps 738 mmHg 73%
    19:00 +18°C° 0 mm 2 mps 738 mmHg 74%
    20:00 +18°C° 0 mm 2 mps 738 mmHg 75%
    21:00 +18°C° 0 mm 2 mps 739 mmHg 76%
    22:00 +17°C° 0 mm 2 mps 739 mmHg 77%
    23:00 +17°C° 0 mm 2 mps 738 mmHg 77%

    20 October, Saturday

    Time Temperature Precipitation Wind Pressure Humidity
    00:00 +17°C° 0 mm 2 mps 738 mmHg 78%
    01:00 +16°C° 0 mm 1 mps 738 mmHg 79%
    02:00 +16°C° 0 mm 1 mps 738 mmHg 80%
    03:00 +16°C° 0 mm 1 mps 738 mmHg 80%
    04:00 +16°C° 0 mm 1 mps 738 mmHg 80%
    05:00 +15°C° 0 mm 1 mps 738 mmHg 80%
    06:00 +15°C° 0 mm 1 mps 738 mmHg 80%
    07:00 +18°C° 0 mm 1 mps 737 mmHg 74%
    08:00 +19°C° 0 mm 1 mps 737 mmHg 67%
    09:00 +21°C° 0 mm 1 mps 737 mmHg 61%
    10:00 +22°C° 0 mm 1 mps 737 mmHg 56%
    11:00 +23°C° 0 mm 2 mps 737 mmHg 52%
    12:00 +24°C° 0 mm 2 mps 736 mmHg 47%
    13:00 +24°C° 0 mm 2 mps 736 mmHg 46%
    14:00 +25°C° 0 mm 1 mps 735 mmHg 44%
    15:00 +25°C° 0 mm 1 mps 735 mmHg 43%
    16:00 +23°C° 0 mm 1 mps 735 mmHg 49%
    17:00 +22°C° 0 mm 1 mps 735 mmHg 54%
    18:00 +20°C° 0 mm 1 mps 735 mmHg 60%
    19:00 +20°C° 0 mm 1 mps 736 mmHg 61%
    20:00 +20°C° 0 mm 1 mps 736 mmHg 62%
    21:00 +19°C° 0 mm 1 mps 736 mmHg 63%
    22:00 +19°C° 0 mm 1 mps 735 mmHg 64%
    23:00 +19°C° 0 mm 1 mps 735 mmHg 64%
    Show more